Regional Weather Roundup
Issued by NWS

Home | Current Version | Previous Version | Text Only | Print | Product List | Glossary Off
Versions: 1 2 3 4 5 6 7 8 9 10 11 12 13 14 15 16 17 18 19 20 21 22 23 24 25 26 27 28 29 30 31 32 33 34 35 36 37 38 39 40 41 42 43 44 45 46 47 48 49 50

000
ASUS43 KLMK 242310
RWRKY
KENTUCKY REGIONAL WEATHER ROUNDUP
NATIONAL WEATHER SERVICE LOUISVILLE KY
600 PM EST SAT FEB 24 2018

NOTE "FAIR" INDICATES FEW OR NO CLOUDS BELOW 12,000 FEET
WITH NO SIGNIFICANT WEATHER AND/OR OBSTRUCTIONS TO VISIBILITY.

KYZ001>023-026-027-061>063-070>075-250000-
WESTERN AND SOUTH CENTRAL KENTUCKY

CITY           SKY/WX    TMP DP  RH WIND       PRES   REMARKS
PADUCAH        LGT RAIN  63  60  90 SE14      29.71F
HENDERSON      RAIN      55  55 100 SE9       29.80F FOG
OWENSBORO      NOT AVBL
HOPKINSVILLE   FAIR      66  63  90 SE5       29.80F
BOWLING GREEN  LGT RAIN  67  65  93 W10       29.85R VSB 1
GLASGOW        FAIR     N/A N/A N/A S7        29.86R
$$

KYZ024-025-028>034-038-045-046-053-250000-
NORTH CENTRAL KENTUCKY

CITY           SKY/WX    TMP DP  RH WIND       PRES   REMARKS
LOUISVILLE/SDF LGT RAIN  55  53  93 N6        29.83F
LOUISVILLE/LOU RAIN      55  55 100 NE8       29.83F FOG
FORT KNOX      HVY RAIN  55  55 100 E6        29.85S VSB 3/4
$$

KYZ035>037-039>044-047>052-055>060-089>105-250000-
NORTHEAST KENTUCKY

CITY           SKY/WX    TMP DP  RH WIND       PRES   REMARKS
LEXINGTON      LGT RAIN  58  55  90 E5        29.91F
COVINGTON      HVY RAIN  52  51  97 E8        29.91S FOG
FRANKFORT      CLOUDY    55  52  89 E3        29.88F
$$

KYZ054-064>069-076>088-106>120-250000-
SOUTHEAST KENTUCKY

CITY           SKY/WX    TMP DP  RH WIND       PRES   REMARKS
JACKSON        MOCLDY    64  60  87 CALM      29.96F
LONDON         FAIR      66  61  84 S7        29.95F
SOMERSET       FAIR      68  59  73 S9        29.93S
MIDDLESBORO    CLOUDY    67  59  75 S16G23    29.99F
MONTICELLO     FAIR      70  61  73 SE9       29.92F
$$





USA.gov is the U.S. government's official web portal to all federal, state and local government web resources and services.